Location: Altenhof
(50.2418°N, 10.8789°E)
Time: 16:48:16
(UTC+00:00)

ALOS - Pass Details

Date: 18 February 2020
Orbit: 684 x 685 km, 97.8° (Epoch: 07 April)

Event Time Altitude Azimuth Distance (km) Brightness Sun altitude
Rises 04:11:28 0° 17° (NNE) 3,063 6.0 -21.7°
Reaches altitude 10° 04:13:47 10° 23° (NNE) 2,142 5.2 -21.3°
Maximum altitude 04:18:21 50° 99° (E) 877 3.2 -20.6°
Drops below altitude 10° 04:22:52 10° 175° (S) 2,125 4.8 -19.9°
Sets 04:25:09 0° 181° (S) 3,036 5.6 -19.5°
